This demonstration page uses our WeatherBlox Daily Observations layout. Learn more.

Left ArrowRight Arrow

Hourly Observations for September 21, 2020

Temp ( °F °C ) Dew Point ( °F °C ) Humidity (%) Winds ( mph kmh ) Pressure ( in mb ) Visibility ( mi km ) Precip ( " mm )
12:15 am 00:15 Clear 52 11 41 5 67 67 NE 3 6 30.54 1034 10 16 0.00 0.00
12:35 am 00:35 Clear 50 10 41 5 71 71 Calm 30.56 1035 10 16 0.00 0.00
12:55 am 00:55 Clear 50 10 41 5 71 71 Calm 30.56 1035 10 16 0.00 0.00
1:15 am 01:15 Clear 50 10 41 5 71 71 Calm 30.56 1035 10 16 0.00 0.00
1:35 am 01:35 Clear 45 7 41 5 87 87 Calm 30.56 1035 10 16 0.00 0.00
1:55 am 01:55 Clear 46 8 41 5 82 82 N 3 6 30.56 1035 10 16 0.00 0.00
2:15 am 02:15 Clear 45 7 41 5 87 87 Calm 30.56 1035 10 16 0.00 0.00
2:35 am 02:35 Clear 45 7 41 5 87 87 Calm 30.56 1035 10 16 0.00 0.00
2:55 am 02:55 Clear 46 8 41 5 82 82 NNE 3 6 30.56 1035 10 16 0.00 0.00
3:15 am 03:15 Clear 43 6 39 4 87 87 Calm 30.55 1035 10 16 0.00 0.00
3:35 am 03:35 Clear 43 6 41 5 93 93 NNW 3 6 30.55 1035 10 16 0.00 0.00
3:55 am 03:55 Clear 41 5 41 5 100 100 Calm 30.55 1035 10 16 0.00 0.00
4:15 am 04:15 Clear 43 6 41 5 93 93 NNW 5 7 30.55 1035 10 16 0.00 0.00
4:35 am 04:35 Clear 43 6 41 5 93 93 N 3 6 30.55 1035 10 16 0.00 0.00
4:55 am 04:55 Clear 43 6 41 5 93 93 N 6 9 30.55 1035 10 16 0.00 0.00
5:15 am 05:15 Clear 43 6 39 4 87 87 N 5 7 30.56 1035 10 16 0.00 0.00
5:35 am 05:35 Clear 43 6 39 4 87 87 N 7 11 30.56 1035 10 16 0.00 0.00
5:55 am 05:55 Clear 45 7 37 3 76 76 N 8 13 30.56 1035 10 16 0.00 0.00
6:15 am 06:15 Clear 45 7 37 3 76 76 NNE 9 15 30.56 1035 10 16 0.00 0.00
6:35 am 06:35 Clear 45 7 37 3 76 76 N 8 13 30.57 1035 10 16 0.00 0.00
6:55 am 06:55 Clear 43 6 37 3 81 81 NNE 8 13 30.57 1035 10 16 0.00 0.00
7:15 am 07:15 Sunny 43 6 37 3 81 81 NNE 8 13 30.57 1035 10 16 0.00 0.00
7:35 am 07:35 Sunny 45 7 37 3 76 76 NNE 7 11 30.58 1036 10 16 0.00 0.00
7:55 am 07:55 Sunny 45 7 37 3 76 76 NNE 7 11 30.58 1036 10 16 0.00 0.00
8:15 am 08:15 Sunny 45 7 37 3 76 76 NNE 7 11 30.59 1036 10 16 0.00 0.00
8:35 am 08:35 Sunny 46 8 39 4 76 76 NNE 7 11 30.59 1036 10 16 0.00 0.00
8:55 am 08:55 Sunny 50 10 37 3 62 62 NNE 10 17 30.59 1036 10 16 0.00 0.00
9:15 am 09:15 Sunny 50 10 39 4 67 67 NNE 9 15 30.59 1036 10 16 0.00 0.00
9:35 am 09:35 Sunny 52 11 41 5 67 67 NNE 3 6 30.59 1036 10 16 0.00 0.00
9:55 am 09:55 Sunny 54 12 41 5 63 63 NNE 5 7 30.59 1036 10 16 0.00 0.00
10:15 am 10:15 Sunny 54 12 41 5 63 63 ENE 6 9 30.59 1036 10 16 0.00 0.00
10:35 am 10:35 Sunny 59 15 41 5 51 51 NE 8 13 30.59 1036 10 16 0.00 0.00
10:55 am 10:55 Sunny 59 15 41 5 51 51 ENE 5 7 30.59 1036 10 16 0.00 0.00
11:15 am 11:15 Sunny 59 15 41 5 51 51 NNE 5 7 30.59 1036 10 16 0.00 0.00
11:35 am 11:35 Sunny 61 16 39 4 45 45 SE 6 9 30.59 1036 10 16 0.00 0.00
11:55 am 11:55 Sunny 63 17 39 4 42 42 NNE 7 11 30.58 1035 10 16 0.00 0.00
12:15 pm 12:15 Sunny 63 17 39 4 42 42 NE 9 15 30.57 1035 10 16 0.00 0.00
12:35 pm 12:35 Sunny 63 17 41 5 45 45 NE 7 11 30.56 1035 10 16 0.00 0.00
12:55 pm 12:55 Sunny 63 17 41 5 45 45 E 9 15 30.56 1035 10 16 0.00 0.00
1:15 pm 13:15 Sunny 63 17 39 4 42 42 NE 7 11 30.55 1034 10 16 0.00 0.00
1:35 pm 13:35 Sunny 63 17 39 4 42 42 E 5 7 30.54 1034 10 16 0.00 0.00
1:55 pm 13:55 Sunny 64 18 39 4 40 40 ENE 6 9 30.52 1034 10 16 0.00 0.00
2:15 pm 14:15 Sunny 64 18 39 4 40 40 NE 7 11 30.51 1033 10 16 0.00 0.00
2:35 pm 14:35 Sunny 64 18 41 5 43 43 SSE 3 6 30.50 1033 10 16 0.00 0.00
2:55 pm 14:55 Sunny 64 18 39 4 40 40 ENE 6 9 30.50 1033 10 16 0.00 0.00
3:15 pm 15:15 Sunny 64 18 39 4 40 40 SSE 5 7 30.49 1033 10 16 0.00 0.00
3:35 pm 15:35 Sunny 64 18 41 5 43 43 Calm 30.48 1032 10 16 0.00 0.00
3:55 pm 15:55 Sunny 66 19 39 4 37 37 E 6 9 30.47 1032 10 16 0.00 0.00
4:15 pm 16:15 Sunny 64 18 39 4 40 40 Calm 30.46 1032 10 16 0.00 0.00
4:35 pm 16:35 Sunny 64 18 37 3 37 37 Calm 30.46 1032 10 16 0.00 0.00
4:55 pm 16:55 Sunny 64 18 41 5 43 43 E 5 7 30.45 1031 10 16 0.00 0.00
5:15 pm 17:15 Sunny 64 18 37 3 37 37 ENE 3 6 30.45 1031 10 16 0.00 0.00
5:35 pm 17:35 Sunny 64 18 37 3 37 37 Calm 30.44 1031 10 16 0.00 0.00
5:55 pm 17:55 Sunny 64 18 37 3 37 37 ESE 3 6 30.44 1031 10 16 0.00 0.00
6:15 pm 18:15 Sunny 64 18 37 3 37 37 ENE 5 7 30.44 1031 10 16 0.00 0.00
6:35 pm 18:35 Sunny 63 17 37 3 39 39 ENE 5 7 30.44 1031 10 16 0.00 0.00
6:55 pm 18:55 Sunny 63 17 37 3 39 39 E 3 6 30.44 1031 10 16 0.00 0.00
7:15 pm 19:15 Clear 61 16 39 4 45 45 Calm 30.44 1031 10 16 0.00 0.00
7:35 pm 19:35 Clear 59 15 39 4 48 48 Calm 30.44 1031 10 16 0.00 0.00
7:55 pm 19:55 Clear 54 12 45 7 72 72 Calm 30.43 1031 10 16 0.00 0.00
8:15 pm 20:15 Clear 55 13 45 7 67 67 Calm 30.43 1031 10 16 0.00 0.00
8:35 pm 20:35 Clear 52 11 45 7 77 77 Calm 30.43 1031 10 16 0.00 0.00
8:55 pm 20:55 Clear 50 10 45 7 82 82 Calm 30.44 1031 10 16 0.00 0.00
9:15 pm 21:15 Clear 50 10 45 7 82 82 Calm 30.44 1031 10 16 0.00 0.00
9:35 pm 21:35 Clear 50 10 46 8 88 88 Calm 30.44 1031 10 16 0.00 0.00
9:55 pm 21:55 Clear 46 8 45 7 93 93 Calm 30.43 1030 10 16 0.00 0.00
10:15 pm 22:15 Clear 46 8 45 7 93 93 Calm 30.43 1030 10 16 0.00 0.00
10:35 pm 22:35 Clear 46 8 45 7 93 93 Calm 30.43 1030 10 16 0.00 0.00
10:55 pm 22:55 Clear 45 7 43 6 93 93 Calm 30.42 1030 10 16 0.00 0.00
11:15 pm 23:15 Clear 45 7 43 6 93 93 Calm 30.42 1030 10 16 0.00 0.00
11:35 pm 23:35 Clear 45 7 43 6 93 93 Calm 30.41 1030 10 16 0.00 0.00
11:55 pm 23:55 Clear 43 6 43 6 100 100 Calm 30.41 1030 10 16 0.00 0.00

Powered by AerisWeather